| time (UTC) | temp F | wind direction | speed knots | gust knots | rain 1hr in | rain 24hr in | rain mn in | humidity % | barometer mb |
| 20260503224533 | 60 | 49 | 2.6 | 10.4 | 0.00 | 0.00 | 0.00 | 36 | 1013.5 |
| 20260503224011 | 60 | 48 | 0.0 | 13.9 | 0.00 | 0.00 | 0.00 | 36 | 1013.5 |
| 20260503223533 | 60 | 14 | 3.5 | 13.9 | 0.00 | 0.00 | 0.00 | 35 | 1013.5 |
| 20260503223055 | 61 | 63 | 2.6 | 10.4 | 0.00 | 0.00 | 0.00 | 35 | 1013.5 |
| 20260503222537 | 61 | 141 | 3.5 | 10.4 | 0.00 | 0.00 | 0.00 | 36 | 1013.5 |
| 20260503222055 | 61 | 46 | 4.3 | 11.3 | 0.00 | 0.00 | 0.00 | 35 | 1013.5 |
| 20260503221515 | 61 | 34 | 5.2 | 11.3 | 0.00 | 0.00 | 0.00 | 35 | 1013.4 |
| 20260503221053 | 61 | 64 | 3.5 | 8.7 | 0.00 | 0.00 | 0.00 | 35 | 1013.4 |
| 20260503220511 | 62 | 25 | 0.9 | 11.3 | 0.00 | 0.00 | 0.00 | 35 | 1013.4 |
| 20260503220032 | 61 | 53 | 1.7 | 11.3 | 0.00 | 0.00 | 0.00 | 35 | 1013.5 |
| 20260503215510 | 61 | 16 | 2.6 | 13.9 | 0.00 | 0.00 | 0.00 | 34 | 1013.3 |
| 20260503215031 | 61 | 44 | 1.7 | 13.9 | 0.00 | 0.00 | 0.00 | 34 | 1013.4 |
| 20260503214548 | 61 | 54 | 7.0 | 13.0 | 0.00 | 0.00 | 0.00 | 34 | 1013.4 |
| 20260503214013 | 61 | 56 | 1.7 | 14.8 | 0.00 | 0.00 | 0.00 | 34 | 1013.2 |
| 20260503213547 | 61 | 35 | 2.6 | 14.8 | 0.00 | 0.00 | 0.00 | 33 | 1013.3 |
| 20260503213007 | 61 | 41 | 3.5 | 12.2 | 0.00 | 0.00 | 0.00 | 33 | 1013.3 |
| 20260503212527 | 62 | 123 | 2.6 | 7.8 | 0.00 | 0.00 | 0.00 | 33 | 1013.2 |
| 20260503212004 | 61 | 112 | 0.9 | 11.3 | 0.00 | 0.00 | 0.00 | 34 | 1013.1 |
| 20260503211524 | 61 | 87 | 2.6 | 13.0 | 0.00 | 0.00 | 0.00 | 34 | 1013.2 |
| 20260503211100 | 61 | 18 | 5.2 | 13.0 | 0.00 | 0.00 | 0.00 | 34 | 1013.3 |
| 20260503211002 | 61 | 74 | 7.0 | 13.0 | 0.00 | 0.00 | 0.00 | 33 | 1013.2 |
| 20260503210529 | 61 | 56 | 1.7 | 10.4 | 0.00 | 0.00 | 0.00 | 35 | 1013.2 |
| 20260503210050 | 60 | 12 | 5.2 | 11.3 | 0.00 | 0.00 | 0.00 | 33 | 1013.2 |
| 20260503205527 | 61 | 356 | 6.1 | 13.9 | 0.00 | 0.00 | 0.00 | 33 | 1013.3 |
| 20260503205011 | 61 | 143 | 5.2 | 13.9 | 0.00 | 0.00 | 0.00 | 34 | 1013.4 |
| 20260503204538 | 61 | 14 | 1.7 | 9.6 | 0.00 | 0.00 | 0.00 | 34 | 1013.4 |
| 20260503204053 | 61 | 321 | 2.6 | 9.6 | 0.00 | 0.00 | 0.00 | 35 | 1013.4 |
| 20260503203515 | 60 | 11 | 1.7 | 9.6 | 0.00 | 0.00 | 0.00 | 35 | 1013.4 |
| 20260503203052 | 61 | 228 | 3.5 | 9.6 | 0.00 | 0.00 | 0.00 | 34 | 1013.6 |
| 20260503202515 | 61 | 131 | 1.7 | 5.2 | 0.00 | 0.00 | 0.00 | 37 | 1013.4 |
| 20260503202056 | 60 | 92 | 1.7 | 7.8 | 0.00 | 0.00 | 0.00 | 37 | 1013.5 |
| 20260503201513 | 60 | 346 | 3.5 | 7.8 | 0.00 | 0.00 | 0.00 | 36 | 1013.5 |
| 20260503201039 | 60 | 4 | 1.7 | 7.0 | 0.00 | 0.00 | 0.00 | 36 | 1013.6 |
| 20260503200553 | 59 | 81 | 2.6 | 7.0 | 0.00 | 0.00 | 0.00 | 36 | 1013.6 |
| 20260503200014 | 59 | 88 | 2.6 | 15.6 | 0.00 | 0.00 | 0.00 | 37 | 1013.7 |
| 20260503195535 | 59 | 15 | 5.2 | 17.4 | 0.00 | 0.00 | 0.00 | 35 | 1013.9 |
| 20260503195015 | 59 | 58 | 7.0 | 17.4 | 0.00 | 0.00 | 0.00 | 36 | 1013.8 |
| 20260503194537 | 60 | 193 | 2.6 | 11.3 | 0.00 | 0.00 | 0.00 | 36 | 1013.9 |
| 20260503194016 | 59 | 49 | 1.7 | 13.9 | 0.00 | 0.00 | 0.00 | 36 | 1013.9 |
| 20260503193537 | 59 | 37 | 4.3 | 16.5 | 0.00 | 0.00 | 0.00 | 37 | 1014.2 |
| 20260503193102 | 59 | 146 | 8.7 | 16.5 | 0.00 | 0.00 | 0.00 | 36 | 1014.1 |
| 20260503192541 | 59 | 65 | 2.6 | 12.2 | 0.00 | 0.00 | 0.00 | 36 | 1014.2 |
| 20260503192020 | 59 | 25 | 4.3 | 11.3 | 0.00 | 0.00 | 0.00 | 35 | 1014.3 |
| 20260503191548 | 59 | 29 | 2.6 | 9.6 | 0.00 | 0.00 | 0.00 | 39 | 1014.2 |
| 20260503191015 | 59 | 59 | 1.7 | 7.8 | 0.00 | 0.00 | 0.00 | 36 | 1014.2 |
| 20260503190536 | 59 | 30 | 1.7 | 7.0 | 0.00 | 0.00 | 0.00 | 38 | 1014.3 |
| 20260503190020 | 59 | 139 | 1.7 | 9.6 | 0.00 | 0.00 | 0.00 | 37 | 1014.3 |
| 20260503185548 | 58 | 26 | 2.6 | 9.6 | 0.00 | 0.00 | 0.00 | 40 | 1014.4 |
| 20260503185015 | 57 | 32 | 1.7 | 14.8 | 0.00 | 0.00 | 0.00 | 37 | 1014.4 |
| 20260503184558 | 58 | 150 | 2.6 | 12.2 | 0.00 | 0.00 | 0.00 | 37 | 1014.3 |
| 20260503184011 | 57 | 58 | 6.1 | 11.3 | 0.00 | 0.00 | 0.00 | 36 | 1014.4 |
| 20260503183544 | 58 | 60 | 2.6 | 10.4 | 0.00 | 0.00 | 0.00 | 38 | 1014.5 |
| 20260503183009 | 58 | 60 | 4.3 | 14.8 | 0.00 | 0.00 | 0.00 | 36 | 1014.6 |
| 20260503182546 | 57 | 140 | 5.2 | 14.8 | 0.00 | 0.00 | 0.00 | 38 | 1014.6 |
| 20260503182012 | 57 | 83 | 5.2 | 12.2 | 0.00 | 0.00 | 0.00 | 37 | 1014.6 |
| 20260503181607 | 57 | 112 | 4.3 | 9.6 | 0.00 | 0.00 | 0.00 | 38 | 1014.7 |
| 20260503181013 | 57 | 62 | 4.3 | 9.6 | 0.00 | 0.00 | 0.00 | 38 | 1014.6 |
| 20260503180553 | 56 | 331 | 3.5 | 10.4 | 0.00 | 0.00 | 0.00 | 38 | 1014.7 |
| 20260503180035 | 56 | 156 | 3.5 | 12.2 | 0.00 | 0.00 | 0.00 | 37 | 1014.7 |
| 20260503175557 | 56 | 38 | 2.6 | 8.7 | 0.00 | 0.00 | 0.00 | 38 | 1014.6 |
| 20260503175024 | 57 | 108 | 2.6 | 13.0 | 0.00 | 0.00 | 0.00 | 41 | 1014.5 |
| 20260503174503 | 57 | 134 | 1.7 | 10.4 | 0.00 | 0.00 | 0.00 | 38 | 1014.6 |
| 20260503174043 | 56 | 152 | 2.6 | 13.0 | 0.00 | 0.00 | 0.00 | 39 | 1014.8 |
| 20260503173525 | 56 | 36 | 3.5 | 14.8 | 0.00 | 0.00 | 0.00 | 39 | 1014.8 |
| 20260503173013 | 56 | 37 | 4.3 | 14.8 | 0.00 | 0.00 | 0.00 | 38 | 1014.8 |
| 20260503172535 | 56 | 331 | 2.6 | 12.2 | 0.00 | 0.00 | 0.00 | 40 | 1014.8 |
| 20260503172024 | 55 | 75 | 6.1 | 12.2 | 0.00 | 0.00 | 0.00 | 38 | 1014.8 |
| 20260503171556 | 55 | 218 | 2.6 | 8.7 | 0.00 | 0.00 | 0.00 | 40 | 1014.8 |
| 20260503171039 | 56 | 15 | 1.7 | 7.8 | 0.00 | 0.00 | 0.00 | 40 | 1014.9 |
| 20260503170521 | 56 | 4 | 2.6 | 7.8 | 0.00 | 0.00 | 0.00 | 38 | 1014.8 |
| 20260503150544 | 51 | 113 | 1.7 | 7.0 | 0.00 | 0.00 | 0.00 | 49 | 1015.7 |
| 20260503131005 | 48 | 155 | 1.7 | 7.8 | 0.00 | 0.00 | 0.00 | 58 | 1015.4 |
| 20260503130546 | 48 | 146 | 2.6 | 7.8 | 0.00 | 0.00 | 0.00 | 57 | 1015.5 |
| 20260503110526 | 44 | 68 | 0.0 | 0.9 | 0.00 | 0.00 | 0.00 | 65 | 1014.8 |
| 20260503081531 | 42 | 25 | 0.0 | 2.6 | 0.00 | 0.00 | 0.00 | 70 | 1012.6 |
| 20260503081042 | 42 | 96 | 0.0 | 1.7 | 0.00 | 0.00 | 0.00 | 71 | 1012.7 |
| 20260503080516 | 42 | 98 | 0.0 | 0.9 | 0.00 | 0.00 | 0.00 | 71 | 1012.6 |
| 20260503072547 | 42 | 86 | 0.0 | 0.9 | 0.00 | 0.00 | 0.00 | 71 | 1012.4 |
| 20260503072021 | 43 | 112 | 0.0 | 0.9 | 0.00 | 0.00 | 0.00 | 71 | 1012.4 |
| 20260503071546 | 43 | 60 | 0.0 | 0.9 | 0.00 | 0.00 | 0.00 | 70 | 1012.4 |
| 20260503071003 | 43 | 60 | 0.0 | 0.9 | 0.00 | 0.00 | 0.00 | 70 | 1012.4 |
| 20260503070523 | 43 | 58 | 0.0 | 0.9 | 0.00 | 0.00 | 0.00 | 70 | 1012.4 |
| 20260503070105 | 43 | 58 | 0.0 | 1.7 | 0.00 | 0.00 | 0.00 | 70 | 1012.4 |
| 20260503055003 | 44 | 56 | 0.0 | 0.0 | 0.00 | 0.00 | 0.00 | 72 | 1013.0 |
| 20260503054539 | 44 | 55 | 0.0 | 0.0 | 0.00 | 0.00 | 0.00 | 72 | 1013.0 |
| 20260503054011 | 43 | 55 | 0.0 | 0.0 | 0.00 | 0.00 | 0.00 | 73 | 1013.0 |
| 20260503053548 | 43 | 55 | 0.0 | 0.0 | 0.00 | 0.00 | 0.00 | 73 | 1013.0 |
| 20260503053028 | 43 | 55 | 0.0 | 0.0 | 0.00 | 0.00 | 0.00 | 73 | 1013.1 |
| 20260503052552 | 44 | 55 | 0.0 | 0.0 | 0.00 | 0.00 | 0.00 | 73 | 1013.1 |
| 20260503052036 | 44 | 55 | 0.0 | 0.0 | 0.00 | 0.00 | 0.00 | 72 | 1013.2 |
| 20260503051557 | 45 | 55 | 0.0 | 0.0 | 0.00 | 0.00 | 0.00 | 70 | 1013.2 |
| 20260503051022 | 45 | 55 | 0.0 | 0.0 | 0.00 | 0.00 | 0.00 | 69 | 1013.3 |
| 20260503050554 | 45 | 55 | 0.0 | 0.0 | 0.00 | 0.00 | 0.00 | 69 | 1013.3 |
| 20260503050036 | 46 | 55 | 0.0 | 0.0 | 0.00 | 0.00 | 0.00 | 68 | 1013.4 |
| 20260503045516 | 46 | 55 | 0.0 | 0.0 | 0.00 | 0.00 | 0.00 | 66 | 1013.3 |
| 20260503045045 | 46 | 55 | 0.0 | 0.0 | 0.00 | 0.00 | 0.00 | 65 | 1013.4 |
| 20260503044526 | 47 | 55 | 0.0 | 0.0 | 0.00 | 0.00 | 0.00 | 65 | 1013.4 |
| 20260503044057 | 47 | 56 | 0.0 | 0.0 | 0.00 | 0.00 | 0.00 | 65 | 1013.4 |
| 20260503043521 | 47 | 56 | 0.0 | 0.0 | 0.00 | 0.00 | 0.00 | 64 | 1013.4 |
| 20260503043100 | 47 | 55 | 0.0 | 2.6 | 0.00 | 0.00 | 0.00 | 63 | 1013.3 |
| 20260503042525 | 48 | 56 | 0.0 | 2.6 | 0.00 | 0.00 | 0.00 | 62 | 1013.4 |
| 20260503042058 | 48 | 68 | 0.0 | 2.6 | 0.00 | 0.00 | 0.00 | 62 | 1013.4 |
| 20260503041522 | 48 | 65 | 0.0 | 2.6 | 0.00 | 0.00 | 0.00 | 62 | 1013.4 |
| 20260503041059 | 48 | 67 | 0.0 | 2.6 | 0.00 | 0.00 | 0.00 | 61 | 1013.5 |
| 20260503040521 | 48 | 55 | 0.0 | 2.6 | 0.00 | 0.00 | 0.00 | 61 | 1013.5 |
| 20260503040104 | 48 | 75 | 0.0 | 3.5 | 0.00 | 0.00 | 0.00 | 61 | 1013.6 |
| 20260503035535 | 49 | 321 | 0.0 | 3.5 | 0.00 | 0.00 | 0.00 | 60 | 1013.7 |
| 20260503035011 | 49 | 271 | 0.9 | 5.2 | 0.00 | 0.00 | 0.00 | 60 | 1013.6 |
| 20260503034543 | 49 | 113 | 0.9 | 5.2 | 0.00 | 0.00 | 0.00 | 60 | 1013.6 |
| 20260503034034 | 49 | 10 | 1.7 | 5.2 | 0.00 | 0.00 | 0.00 | 60 | 1013.7 |
| 20260503033556 | 49 | 91 | 0.0 | 6.1 | 0.00 | 0.00 | 0.00 | 60 | 1013.6 |
| 20260503033029 | 49 | 55 | 1.7 | 6.1 | 0.00 | 0.00 | 0.00 | 59 | 1013.6 |
| 20260503032551 | 48 | 60 | 1.7 | 6.1 | 0.00 | 0.00 | 0.00 | 59 | 1013.6 |
| 20260503032037 | 48 | 34 | 0.9 | 5.2 | 0.00 | 0.00 | 0.00 | 59 | 1013.6 |
| 20260503031511 | 49 | 27 | 1.7 | 7.0 | 0.00 | 0.00 | 0.00 | 59 | 1013.5 |
| 20260503031046 | 49 | 33 | 0.9 | 7.0 | 0.00 | 0.00 | 0.00 | 58 | 1013.6 |
| 20260503030510 | 49 | 79 | 0.9 | 5.2 | 0.00 | 0.00 | 0.00 | 58 | 1013.6 |
| 20260503030104 | 49 | 76 | 0.9 | 5.2 | 0.00 | 0.00 | 0.00 | 58 | 1013.6 |
| 20260503025525 | 48 | 86 | 0.0 | 1.7 | 0.00 | 0.00 | 0.00 | 58 | 1013.6 |
| 20260503025003 | 49 | 73 | 0.0 | 4.3 | 0.00 | 0.00 | 0.00 | 58 | 1013.5 |
| 20260503024542 | 49 | 68 | 0.9 | 2.6 | 0.00 | 0.00 | 0.00 | 57 | 1013.6 |
| 20260503024022 | 49 | 60 | 0.0 | 4.3 | 0.00 | 0.00 | 0.00 | 57 | 1013.7 |
| 20260503023600 | 49 | 39 | 0.9 | 4.3 | 0.00 | 0.00 | 0.00 | 57 | 1013.7 |
| 20260503023039 | 48 | 65 | 0.0 | 2.6 | 0.00 | 0.00 | 0.00 | 57 | 1013.6 |
| 20260503022515 | 49 | 11 | 0.0 | 1.7 | 0.00 | 0.00 | 0.00 | 57 | 1013.7 |
| 20260503022049 | 49 | 49 | 0.0 | 2.6 | 0.00 | 0.00 | 0.00 | 57 | 1013.7 |
| 20260503021531 | 49 | 15 | 0.0 | 2.6 | 0.00 | 0.00 | 0.00 | 57 | 1013.8 |
| 20260503021007 | 49 | 75 | 0.0 | 2.6 | 0.00 | 0.00 | 0.00 | 56 | 1013.8 |
| 20260503020542 | 49 | 70 | 0.0 | 2.6 | 0.00 | 0.00 | 0.00 | 56 | 1013.8 |
| 20260503020023 | 49 | 60 | 0.0 | 1.7 | 0.00 | 0.00 | 0.00 | 56 | 1013.7 |
| 20260503015546 | 49 | 40 | 0.0 | 1.7 | 0.00 | 0.00 | 0.00 | 56 | 1013.8 |
| 20260503015026 | 49 | 17 | 0.0 | 0.9 | 0.00 | 0.00 | 0.00 | 55 | 1013.7 |
| 20260503014606 | 49 | 58 | 0.0 | 0.9 | 0.00 | 0.00 | 0.00 | 55 | 1013.7 |
| 20260503014502 | 50 | 59 | 0.0 | 1.7 | 0.00 | 0.00 | 0.00 | 55 | 1013.7 |
| 20260503014041 | 50 | 68 | 0.0 | 1.7 | 0.00 | 0.00 | 0.00 | 54 | 1013.8 |
| 20260503013518 | 50 | 58 | 0.0 | 0.9 | 0.00 | 0.00 | 0.00 | 54 | 1013.7 |
| 20260503013055 | 50 | 53 | 0.0 | 0.9 | 0.00 | 0.00 | 0.00 | 54 | 1013.7 |
| 20260503012532 | 51 | 54 | 0.0 | 0.9 | 0.00 | 0.00 | 0.00 | 53 | 1013.5 |
| 20260503012015 | 51 | 51 | 0.0 | 0.9 | 0.00 | 0.00 | 0.00 | 52 | 1013.5 |
| 20260503011554 | 51 | 49 | 0.0 | 1.7 | 0.00 | 0.00 | 0.00 | 52 | 1013.5 |
| 20260503011029 | 51 | 53 | 0.0 | 1.7 | 0.00 | 0.00 | 0.00 | 52 | 1013.4 |
| 20260503010512 | 52 | 65 | 0.0 | 0.9 | 0.00 | 0.00 | 0.00 | 52 | 1013.5 |
| 20260503010048 | 52 | 60 | 0.0 | 2.6 | 0.00 | 0.00 | 0.00 | 52 | 1013.5 |
| 20260503005528 | 52 | 60 | 0.0 | 2.6 | 0.00 | 0.00 | 0.00 | 51 | 1013.3 |
| 20260503005003 | 52 | 27 | 0.0 | 2.6 | 0.00 | 0.00 | 0.00 | 51 | 1013.3 |
| 20260503004540 | 52 | 108 | 0.0 | 1.7 | 0.00 | 0.00 | 0.00 | 51 | 1013.3 |
| 20260503004021 | 52 | 70 | 0.0 | 0.9 | 0.00 | 0.00 | 0.00 | 51 | 1013.2 |
| 20260503003559 | 52 | 69 | 0.0 | 0.9 | 0.00 | 0.00 | 0.00 | 50 | 1013.2 |
| 20260503003501 | 52 | 69 | 0.0 | 0.9 | 0.00 | 0.00 | 0.00 | 51 | 1013.1 |
| 20260503003046 | 52 | 70 | 0.0 | 0.9 | 0.00 | 0.00 | 0.00 | 50 | 1013.1 |
| 20260503002519 | 53 | 70 | 0.0 | 2.6 | 0.00 | 0.00 | 0.00 | 50 | 1013.1 |
| 20260503002053 | 53 | 91 | 0.0 | 2.6 | 0.00 | 0.00 | 0.00 | 50 | 1013.1 |
| 20260503001535 | 53 | 56 | 0.0 | 1.7 | 0.00 | 0.00 | 0.00 | 49 | 1013.0 |
| 20260503001013 | 53 | 77 | 0.0 | 3.5 | 0.00 | 0.00 | 0.00 | 49 | 1012.9 |
| 20260503000547 | 53 | 70 | 0.0 | 3.5 | 0.00 | 0.00 | 0.00 | 48 | 1012.9 |
| 20260503000033 | 53 | 58 | 0.0 | 1.7 | 0.00 | 0.00 | 0.00 | 48 | 1012.9 |
| 20260502235507 | 54 | 54 | 0.0 | 1.7 | 0.00 | 0.00 | 0.00 | 47 | 1012.9 |
| 20260502235043 | 54 | 131 | 0.0 | 1.7 | 0.00 | 0.00 | 0.00 | 47 | 1012.8 |
| 20260502234528 | 54 | 36 | 0.0 | 2.6 | 0.00 | 0.00 | 0.00 | 46 | 1012.8 |
| 20260502234008 | 54 | 69 | 0.0 | 2.6 | 0.00 | 0.00 | 0.00 | 46 | 1012.7 |
| 20260502233547 | 54 | 82 | 0.0 | 1.7 | 0.00 | 0.00 | 0.00 | 46 | 1012.7 |
| 20260502233028 | 55 | 103 | 0.0 | 3.5 | 0.00 | 0.00 | 0.00 | 45 | 1012.7 |
| 20260502232503 | 55 | 86 | 0.0 | 3.5 | 0.00 | 0.00 | 0.00 | 45 | 1012.6 |
| 20260502232044 | 55 | 48 | 0.0 | 2.6 | 0.00 | 0.00 | 0.00 | 44 | 1012.6 |
| 20260502231521 | 55 | 102 | 0.0 | 1.7 | 0.00 | 0.00 | 0.00 | 44 | 1012.6 |
| 20260502231057 | 56 | 91 | 0.0 | 1.7 | 0.00 | 0.00 | 0.00 | 43 | 1012.6 |
| 20260502230536 | 56 | 65 | 0.0 | 3.5 | 0.00 | 0.00 | 0.00 | 43 | 1012.6 |
| 20260502230018 | 56 | 15 | 0.9 | 5.2 | 0.00 | 0.00 | 0.00 | 42 | 1012.6 |
| 20260502225553 | 56 | 140 | 0.0 | 5.2 | 0.00 | 0.00 | 0.00 | 42 | 1012.6 |
| 20260502225029 | 57 | 149 | 0.0 | 4.3 | 0.00 | 0.00 | 0.00 | 42 | 1012.7 |